www.pogodaiklimat.ru

Погода и климат >> Архив погоды >> Саудовская Аравия >> Makkah


АРХИВ ПОГОДЫ в Makkah

Время (UTC), дата Ветер
(напр.,м/с)
 
Видим.   Явления Облачность Т
(С)
Тd
(С)
f
(%)
Тe
(С)
Тes
(С)
Комфортность P
(гПа)
Po
(гПа)
Тmin
(С)
Tmax
(С)
R
(мм)
R24
(мм)
S
(см)
12 11.12 ЮЗ 1 10 км 3/0
[Ac trans]
+34.4 +18.0 38 +38 +44 очень
душно
1013.6 986.8
15 11.12 Ю 2 10 км ясно +30.4 +20.0 54 +37 +37 очень
душно
1014.5 987.4
18 11.12 штиль 0 10 км ясно +26.8 +21.0 71 +34 +34 очень
душно
1016.3 989.3 +35.6
21 11.12 штиль 0 10 км ясно +25.6 +20.0 71 +31 +31 очень
душно
1015.3 988.5
00 12.12 штиль 0 10 км ясно +23.9 +19.0 74 +29 +29 душно 1014.4 987.6
03 12.12 штиль 0 10 км ясно +22.5 +18.0 76 +28 +28 душно 1015.3 988.1
06 12.12 ЮЗ 1 10 км 3/0
[Ci fib]
+24.4 +21.0 81 +31 +35 очень
душно
1016.1 988.9 +22.2
09 12.12 ЮЗ 2 10 км 4/0
[Ac trans Ci sp]
+32.4 +19.0 45 +38 +47 очень
душно
1015.1 988.2
12 12.12 ЮВ 1 10 км 1/0
[Ci sp]
+34.8 +17.0 35 +38 +45 очень
душно
1013.1 986.3
15 12.12 штиль 0 10 км 3/0
[Ci sp]
+29.8 +18.0 49 +34 +34 очень
душно
1013.8 986.7
18 12.12 штиль 0 10 км ясно +26.8 +20.0 66 +33 +33 очень
душно
1015.9 988.9 +36.0
21 12.12 штиль 0 10 км ясно +25.2 +20.0 73 +31 +31 очень
душно
1015.5 988.6
00 13.12 штиль 0 10 км ясно +23.8 +20.0 79 +29 +29 душно 1014.4 987.6
03 13.12 штиль 0 10 км ясно +22.8 +20.0 84 +29 +29 очень
душно
1015.0 987.8
06 13.12 штиль 0 10 км 3/0
[Ci fib]
+23.8 +20.0 79 +29 +34 душно 1016.3 989.0 +21.5
09 13.12 штиль 0 10 км 3/0
[Ci fib]
+31.2 +20.0 51 +37 +51 опасность
солнечного
удара
1014.5 987.6
12 13.12 Ю 2 10 км 5/0
[Ci sp]
+32.8 +19.0 44 +38 +43 очень
душно
1011.8 985.0
15 13.12 Ю 2 10 км 5/0
[Ci sp]
+29.2 +20.0 58 +36 +36 очень
душно
1012.2 985.2
18 13.12 штиль 0 10 км ясно +26.2 +21.0 73 +33 +33 очень
душно
1013.9 986.7 +34.0
21 13.12 штиль 0 10 км 1/0
[Ac trans]
+25.4 +20.0 72 +31 +31 очень
душно
1012.8 986.0
00 14.12 штиль 0 10 км 4/0
[Ac trans]
+24.4 +18.0 68 +29 +29 душно 1011.5 984.7
03 14.12 штиль 0 10 км ясно +24.0 +17.0 65 +28 +28 душно 1012.1 985.0
06 14.12 штиль 0 10 км 4/0
[Ac trans]
+25.0 +18.0 65 +29 +33 душно 1013.8 986.7 +23.0
09 14.12 штиль 0 10 км 4/4 1200 м
[Cu med, cong]
+30.4 +19.0 51 +36 +45 очень
душно
1012.5 985.6
12 14.12 З 2 10 км 1/1 1200 м
[Cu hum]
+32.8 +15.0 34 +35 +40 душно 1010.4 983.6
15 14.12 ЮЗ 2 10 км 1/0
[Ci fib]
+29.0 +17.0 48 +33 +33 очень
душно
1010.8 983.8
18 14.12 штиль 0 10 км 1/0
[Ac trans]
+26.2 +19.0 65 +31 +31 очень
душно
1012.3 985.3 +33.6
21 14.12 штиль 0 10 км 1/0
[Ac trans]
+23.8 +20.0 79 +29 +29 душно 1012.0 985.1
00 15.12 штиль 0 10 км 1/0
[Ac trans]
+23.2 +19.0 77 +29 +29 душно 1011.7 984.8
03 15.12 штиль 0 10 км ясно +22.4 +19.0 81 +28 +28 душно 1012.2 985.1
06 15.12 штиль 0 10 км 3/0
[Ci fib]
+23.2 +19.0 77 +29 +34 душно 1013.9 986.7 +20.5
09 15.12 СВ 2 10 км 3/3 1200 м
[Sc diur, vesp]
+30.7 +17.0 44 +34 +43 очень
душно
1012.7 985.8
12 15.12 З 2 10 км 4/4 1200 м
[Cu med, cong]
+31.8 +16.0 39 +35 +38 очень
душно
1011.1 984.2
15 15.12 С 1 10 км ясно +27.0 +16.0 51 +30 +30 душно 1012.5 985.3
18 15.12 штиль 0 10 км ясно +24.6 +16.0 59 +28 +28 душно 1014.1 987.0 +32.8
21 15.12 штиль 0 10 км ясно +23.4 +17.0 67 +29 +29 душно 1014.0 987.0
00 16.12 штиль 0 10 км ясно +22.2 +18.0 77 +27 +27 душно 1013.5 986.4
03 16.12 штиль 0 10 км ясно +21.4 +16.0 71 +25 +25 комфорт 1013.6 986.3
06 16.12 штиль 0 10 км ясно +22.6 +9.0 42 +24 +29 комфорт 1015.3 987.9 +20.2
09 16.12 ЮЗ 1 10 км ясно +32.0 +13.0 31 +33 +46 жарко 1013.3 986.4
12 16.12 Ю 3 10 км ясно +33.2 +11.0 26 +33 +38 жарко 1011.3 984.4
15 16.12 штиль 0 10 км ясно +30.4 +12.0 32 +31 +31 жарко 1011.6 984.5
18 16.12 штиль 0 10 км ясно +26.0 +14.0 48 +28 +28 жарко 1013.5 986.5 +34.0
21 16.12 штиль 0 10 км ясно +24.8 +16.0 58 +28 +28 жарко 1013.9 987.1
00 17.12 штиль 0 10 км ясно +23.6 +11.0 45 +25 +25 комфорт 1013.4 986.5
03 17.12 СЗ 2 10 км ясно +22.8 +4.0 29 +23 +23 комфорт 1013.7 986.7
06 17.12 штиль 0 10 км ясно +24.0 +6.0 31 +24 +29 комфорт 1015.2 988.0 +22.4
09 17.12 штиль 0 10 км ясно +33.4 +10.0 24 +33 +48 жарко 1014.1 987.2
12 17.12 Ю 1 10 км ясно +35.0 +11.0 23 +34 +41 очень
жарко
1011.8 985.0
15 17.12 штиль 0 10 км ясно +30.8 +11.0 30 +31 +31 жарко 1012.1 985.1
18 17.12 штиль 0 10 км ясно +26.8 +12.0 40 +28 +28 жарко 1013.9 986.9 +36.2
21 17.12 штиль 0 10 км ясно +25.2 +13.0 47 +27 +27 жарко 1014.4 987.6
00 18.12 штиль 0 10 км ясно +22.7 +5.0 32 +23 +23 комфорт 1014.6 987.7
03 18.12 штиль 0 10 км ясно +22.6 +4.0 30 +23 +23 комфорт 1014.7 987.6
06 18.12 штиль 0 10 км ясно +23.4 +7.0 35 +24 +29 комфорт 1017.0 989.7 +21.0

 

Местоположение метеостанции Makkah (Саудовская Аравия): широта 21.43 долгота 39.77 высота над уровнем моря 240 м.

В архиве по умолчанию представлена погода в Makkah за последнюю неделю. Архивные данные за месяц целиком и за предыдущие месяцы, начиная с января 2011 года, Вы можете получить, выбрав интересующий диапазон дат из раскрывающегося списка и нажав кнопку "Ввод!".

Внимание! Время в таблицах - всемирное. Для получения местного времени необходимо прибавить поправку, которая в Makkah равна 3 ч.

Смотрите также архив погоды в соседних городах и на ближайших метеорологических станциях:

Погода в Mina (Саудовская Аравия) (10 км)
Погода в Arafat (Саудовская Аравия) (24 км)
Погода в Jeddah King Abdul Aziz (Саудовская Аравия) (68 км)
Погода в Al Taif (Саудовская Аравия) (81 км)
Погода в Al Baha (Саудовская Аравия) (232 км)
Погода в Port Sudan (Судан) (336 км)
Погода в Bisha (Саудовская Аравия) (338 км)
Погода в Madinah (Саудовская Аравия) (347 км)
Погода в Yanbu (Саудовская Аравия) (347 км)
Погода в Abha (Саудовская Аравия) (466 км)

Пояснения к столбцам:

Ветер - указаны скорость ветра в м/с - средняя за 10 мин, порывы в срок и между сроками (в фигурных скобках) и направление, откуда дует ветер: С - северный, СВ - северо-восточный, В - восточный, ЮВ - юго-восточный, Ю - южный, ЮЗ - юго-западный, З - западный, СЗ - северо-западный.
Видимость - горизонтальная дальность видимости в метрах или километрах. При видимости от 1 до 10 км при отсутствии осадков обычно наблюдается дымка, при ухудшении видимости до 1 км и менее - туман. В сухую погоду видимость может ухудшаться дымом, пылью или мглою.
Явления - указаны атмосферные явления, наблюдавшиеся в срок или в последний час перед сроком; фигурными скобками обозначены явления, наблюдавшиеся между сроками (за 1-3 часа до срока); квадратными скобками обозначены град или гололедные отложения с указанием их диаметра в мм.
Облачность - указаны через наклонную черту общая и нижняя облачность в баллах и высота нижней границы облаков в метрах; квадратными скобками обозначены формы облаков: Ci - перистые, Cs - перисто-слоистые, Cc - перисто-кучевые, Ac - высококучевые, As - высокослоистые, Sc - слоисто-кучевые, Ns - слоисто-дождевые, Cu - кучевые, Cb - кучево-дождевые. Подробнее классификацию облаков см. в Атласе облаков (PDF).
T - Температура воздуха - температура, измеренная на высоте 2 м над землей.
Td - Температура точки росы - температура, при понижении до которой содержащийся в воздухе водяной пар достигнет насыщения.
f - Относительная влажность воздуха - влажноcть воздуха, измеренная на высоте 2 м над землей.
Te - Эффективная температура - температура, которую ощущает одетый по сезону человек в тени. Характеристика душности погоды. При расчете учитывается влияние влажности воздуха и скорости ветра на теплоощущения человека.
Tes - Эффективная температура на солнце - температура, которую ощущает человек, с поправкой на солнечный нагрев. Характеристика знойности погоды. Зависит от высоты солнца над горизонтом, облачности и скорости ветра. Ночью, в пасмурную погоду, а также при ветре 12 м/с и более поправка равна нулю.
P - Атмосферное давление - приведенное к уровню моря атмосферное давление.
Po - Атмосферное давление - измеренное на уровне метеостанции атмосферное давление.
Tmin - Минимальная температура - минимум температуры воздуха на высоте 2 м над землей.
Tmax - Максимальная температура - максимум температуры воздуха на высоте 2 м над землей.
R - Количество осадков - Количество выпавших осадков за период времени, мм. При наведении курсора мыши на число - период времени, за который выпало указанное количество осадков.
R24 - Количество осадков - Количество выпавших осадков за 24 часа, мм.
S - Снежный покров - Высота снежного покрова, см. При наведении курсора мыши на число - состояние снежного покрова и степень покрытия местности в баллах.